CAPE
0 0 0 0 0 0 0 0 0 0 2 5 3 5 3 2 1 5 9 13 16 14
0 0 0 0 0 0 0 0 0 0 3 3 4 2 6 5 2 3 2 4 8 11
0 0 0 0 0 0 0 0 0 2 6 8 6 6 7 6 5 4 5 6 5 5
0 0 0 0 0 1 0 2 0 3 2 3 0 0 1 1 7 6 6 8 4 8
0 0 0 3 2 2 1 0 2 3 3 8 7 6 1 0 1 1 1 1 2 0
0 0 2 4 4 8 6 3 2 2 2 1 0 1 3 3 7 2 1 0 1 1
2 0 9 0 0 2 4 3 4 0 0 1 1 1 0 2 0 2 1 7 5 2
5 0 4 0 1 0 0 0 0 0 1 1 0 1 3 5 2 0 0 3 6 7
2 4 9 7 0 2 3 2 1 6 6 5 1 0 0 1 3 5 1 0 1 0
5 0 1 1 3 1 1 2 1 4 3 4 1 0 0 2 3 2 1 1 1 1
2 1 2 2 2 1 1 0 2 1 0 0 0 0 1 1 1 1 1 0 1 0
2 2 1 1 1 1 1 1 1 1 0 1 2 0 1 1 0 0 0 0 1 1
1 1 1 2 2 1 3 1 0 1 0 2 1 0 1 2 1 0 0 0 1 0
5 1 4 1 2 1 1 1 2 1 1 3 1 2 0 1 1 0 1 2 1 1
CIN
0 0 0 0 0 0 0 0 0 0 0 0 0 0 0 -1 -1 -1 0 0 0 0
0 0 0 0 0 0 0 0 0 0 -1 0 -1 -1 0 0 0 -1 0 0 -1 -1
0 0 0 0 0 0 -8 -3 0 -1 0 0 0 0 0 0 0 0 0 0 -1 -1
0 0 0 0 0 -4 0 -10 0 0 -1 0 0 0 0 0 0 0 0 0 0 0
0 0 -2 -6 -15 -11 -1 0 0 0 0 0 0 0 -1 0 0 0 0 0 0 0
0 -2 -5 0 0 0 0 0 -1 0 0 0 -1 -1 0 0 0 -1 0 0 0 0
-3 0 0 0 0 0 -1 0 0 0 0 0 0 0 0 0 -1 0 0 0 -1 0
-5 0 -1 0 -2 0 0 -6 0 0 0 -1 0 0 -1 0 0 0 0 0 0 0
-3 0 -1 -1 0 0 0 0 0 0 0 0 0 0 0 -1 0 0 0 -1 -1 0
0 0 0 -2 -1 0 0 0 0 0 0 0 0 0 0 0 0 0 0 0 0 0
0 0 0 0 0 0 0 0 0 0 0 0 0 0 0 0 0 0 0 0 0 0
0 0 0 0 0 0 0 0 0 0 0 0 0 0 0 0 0 0 0 -1 0 0
0 0 -1 0 0 0 0 0 0 0 0 0 0 0 0 0 -1 0 0 0 -1 0
0 0 0 0 0 0 0 0 0 0 0 0 0 0 0 0 0 0 0 -1 -1 -1
Wind_Speed
25 25 26 28 29 29 29 28 30 30 32 35 34 32 31 30 30 30 30 30 31 32
26 26 26 29 28 28 28 29 32 35 36 35 34 32 29 28 29 29 29 29 29 31
29 27 28 27 28 28 29 31 34 36 36 36 32 30 29 28 29 28 29 28 29 30
30 27 27 26 28 27 28 31 34 35 36 34 30 29 29 29 29 29 29 29 30 31
29 27 27 27 27 29 31 32 35 36 34 34 31 30 29 29 27 28 30 31 32 31
30 29 30 30 30 29 30 32 35 36 36 33 30 29 27 26 26 27 29 29 30 30
31 29 29 29 30 30 29 32 36 35 33 31 29 27 26 26 27 28 28 29 27 25
30 28 27 27 28 30 29 31 34 32 31 31 29 27 28 27 27 28 27 26 25 23
31 31 29 28 28 28 30 33 33 33 31 30 28 26 26 27 28 28 26 25 22 22
33 33 32 29 30 29 28 32 31 31 30 28 26 24 26 27 26 25 23 20 17 16
34 33 34 32 34 34 28 28 28 27 27 25 25 24 26 28 26 24 20 16 11 5
32 32 35 37 38 35 29 25 25 24 24 23 23 22 24 27 27 25 19 13 4 4
31 33 34 36 38 35 31 24 21 22 22 22 23 20 19 22 26 25 8 9 10 12
33 33 35 35 37 36 29 26 25 22 21 22 20 19 17 18 21 24 8 7 9 10
Wind_Direction
352 349 349 347 345 345 345 345 344 343 339 336 334 332 330 328 326 322 317 312 308 305
352 352 351 347 348 349 350 348 344 341 339 338 337 336 333 331 328 325 322 317 312 308
350 351 349 351 351 351 351 349 346 344 343 342 342 340 337 333 330 327 324 321 316 311
352 354 355 356 355 355 353 352 350 349 348 348 347 344 340 336 333 330 326 323 318 313
354 355 356 355 354 353 352 354 352 352 352 351 350 347 343 339 337 334 330 326 321 315
353 354 353 353 351 353 355 356 356 355 353 353 352 350 350 347 344 341 335 331 325 319
351 353 353 354 355 358 359 358 356 356 356 357 356 356 353 349 346 343 339 335 330 324
352 355 356 356 357 358 1 0 357 360 3 4 4 3 358 352 348 346 342 339 337 330
349 350 352 354 357 360 360 358 1 5 7 8 11 10 4 357 353 349 345 342 338 335
347 351 351 356 360 1 2 2 8 12 13 17 19 17 8 1 357 353 351 348 344 341
351 351 347 1 356 358 11 14 18 23 23 26 25 21 15 11 8 6 5 5 6 3
339 337 357 354 348 357 16 29 28 30 31 31 29 24 20 19 22 23 28 40 74 154
343 356 349 347 2 3 12 34 38 35 37 35 33 31 23 28 33 36 46 72 88 96
2 357 9 25 22 18 29 33 36 39 40 40 38 35 29 27 38 46 59 81 92 96